Hundvaag 1 weather for May 1996
Month no. 107
Obs.
Da.
Temp. Dew Point Precip. Wind
Speed
Wind gusts Cloud cover Press. Humidity Wind dir. Sunny OPT
01.05.1996 4,1   0,0     1       1  
02.05.1996 3,9   0,0     10       1  
03.05.1996 7,5   0,0     0          
04.05.1996 8,8   4,9     0          
05.05.1996 5,7   1,8     0          
06.05.1996 3,4   1,1     10       1  
07.05.1996 2,9   0,0     8       1  
08.05.1996 2,6   0,0     10       1  
09.05.1996 5,1   0,0     10       1  
10.05.1996 5,5   0,0     10       1  
11.05.1996 7,6   1,2     0          
12.05.1996 9,0   13,2     0          
13.05.1996 9,5   1,9     0          
14.05.1996 7,3   3,0     0          
15.05.1996 6,7   0,0     0          
16.05.1996 8,4   2,0     9       1  
17.05.1996 8,4   0,0     9       1  
18.05.1996 6,0   0,0     0          
19.05.1996 7,4   3,3     0          
20.05.1996 7,4   7,5     0          
21.05.1996 6,6   10,9     0          
22.05.1996 6,9   6,0     0       1  
23.05.1996 8,5   1,0     0          
24.05.1996 8,9   2,1     0          
25.05.1996 9,2   10,1     0       1  
26.05.1996 8,4   1,0     0       1  
27.05.1996 7,9   0,0     4       1  
28.05.1996 5,6   0,0     10          
29.05.1996 8,4   3,2     0          
30.05.1996 6,9   2,1     10       1  
31.05.1996 13,6   2,0     0       1  
Avrg/Sum 7,0   78,3     3,3       15